Location: Koussan�
(15.2012°N, 12.5548°W)
Time: 17:28:19
(UTC+00:00)

Cosmos 1908 - Pass Details

Date: 20 October 2020
Orbit: 512 x 529 km, 82.5° (Epoch: 29 November)

Event Time Altitude Azimuth Distance (km) Brightness Sun altitude
Rises 18:44:32 0° 194° (SSW) 2,610 7.1 -5.1°
Reaches altitude 10° 18:46:42 10° 199° (SSW) 1,727 6.3 -5.6°
Maximum altitude 18:50:22 49° 275° (W) 665 4.3 -6.5°
Drops below altitude 10° 18:54:03 10° 351° (N) 1,735 5.9 -7.3°
Sets 18:56:14 0° 357° (N) 2,625 6.7 -7.9°
